Location: Limerick
(52.6650°N, 8.6230°W)
Time: 19:48:22
(UTC+01:00)

ISS - Pass Details

Date: 26 July 2017
Orbit: 400 x 408 km, 51.6° (Epoch: 21 July)

Event Time Altitude Azimuth Distance (km) Brightness Sun altitude
Rises 22:54:28 0° 240° (WSW) 2,307 0.1 -9.6°
Reaches altitude 10° 22:56:35 10° 235° (SW) 1,450 -1.0 -9.8°
Maximum altitude 22:59:43 46° 161° (SSE) 553 -3.6 -10.1°
Drops below altitude 10° 23:02:51 10° 86° (E) 1,455 -1.3 -10.3°
Sets 23:04:58 0° 81° (E) 2,316 -0.3 -10.5°
